When you browse on this site, cookies collect data to enhance your experience and personalize the content and advertising you see.
Visit our Privacy Policy to learn more. By continuing to use the site, you agree to this use of cookies and data.
  • în România
  • Lista ţărilor
  • Pe 7 zile
  • Temperatura apei
  • Hartă satelitară
  • Meteo pe hartă
  • Widget-uri
  • user-avatar
    Intrare

    Meteo pe oră la Luanda

    Astăzi, 22 Martie, Vineri

    Timp Temperatura Precipitaţii Vânt Presiune Umiditate
    00:00 +29°C° 0 mm 3 m/s 751 mmHg 86%
    01:00 +29°C° 0 mm 3 m/s 751 mmHg 87%
    02:00 +29°C° 0 mm 3 m/s 751 mmHg 87%
    03:00 +29°C° 0 mm 3 m/s 751 mmHg 87%
    04:00 +29°C° 0 mm 2 m/s 751 mmHg 87%
    05:00 +29°C° 0 mm 2 m/s 751 mmHg 87%
    06:00 +29°C° 0 mm 2 m/s 751 mmHg 87%
    07:00 +29°C° 0 mm 3 m/s 752 mmHg 86%
    08:00 +30°C° 0 mm 2 m/s 752 mmHg 80%
    09:00 +31°C° 0 mm 2 m/s 752 mmHg 75%
    10:00 +32°C° 0 mm 1 m/s 753 mmHg 69%
    11:00 +34°C° 0 mm 1 m/s 752 mmHg 64%
    12:00 +36°C° 0 mm 2 m/s 751 mmHg 59%
    13:00 +38°C° 0 mm 2 m/s 751 mmHg 54%
    14:00 +37°C° 0 mm 3 m/s 750 mmHg 56%
    15:00 +37°C° 0 mm 4 m/s 750 mmHg 59%
    16:00 +36°C° 0 mm 6 m/s 749 mmHg 61%
    17:00 +35°C° 0.2 mm 5 m/s 750 mmHg 68%
    18:00 +33°C° 0.2 mm 5 m/s 750 mmHg 74%
    19:00 +30°C° 0.2 mm 5 m/s 750 mmHg 81%
    20:00 +30°C° 0 mm 4 m/s 751 mmHg 82%
    21:00 +30°C° 0 mm 4 m/s 752 mmHg 83%
    22:00 +30°C° 0 mm 3 m/s 752 mmHg 84%
    23:00 +30°C° 0.4 mm 3 m/s 752 mmHg 85%

    Mâine, 23 Martie, Sâmbătă

    Timp Temperatura Precipitaţii Vânt Presiune Umiditate
    00:00 +30°C° 0.4 mm 4 m/s 752 mmHg 86%
    01:00 +30°C° 0.4 mm 4 m/s 752 mmHg 87%
    02:00 +30°C° 0 mm 4 m/s 752 mmHg 87%
    03:00 +30°C° 0 mm 4 m/s 751 mmHg 88%
    04:00 +29°C° 0 mm 4 m/s 751 mmHg 88%
    05:00 +29°C° 0.8 mm 4 m/s 752 mmHg 88%
    06:00 +29°C° 0.8 mm 4 m/s 752 mmHg 88%
    07:00 +29°C° 0.8 mm 4 m/s 753 mmHg 87%
    08:00 +30°C° 0.9 mm 4 m/s 753 mmHg 83%
    09:00 +32°C° 0.9 mm 4 m/s 753 mmHg 79%
    10:00 +33°C° 0.9 mm 4 m/s 754 mmHg 74%
    11:00 +34°C° 0 mm 4 m/s 753 mmHg 70%
    12:00 +35°C° 0 mm 5 m/s 752 mmHg 65%
    13:00 +36°C° 0 mm 5 m/s 752 mmHg 61%
    14:00 +35°C° 0.1 mm 5 m/s 751 mmHg 63%
    15:00 +34°C° 0.1 mm 5 m/s 751 mmHg 66%
    16:00 +34°C° 0.1 mm 5 m/s 750 mmHg 69%
    17:00 +33°C° 0 mm 4 m/s 751 mmHg 73%
    18:00 +32°C° 0 mm 4 m/s 751 mmHg 76%
    19:00 +30°C° 0 mm 3 m/s 752 mmHg 80%
    20:00 +30°C° 0.1 mm 3 m/s 752 mmHg 82%
    21:00 +30°C° 0.1 mm 2 m/s 753 mmHg 84%
    22:00 +30°C° 0.1 mm 2 m/s 753 mmHg 85%
    23:00 +30°C° 0.1 mm 2 m/s 753 mmHg 86%

    Poimâine, 24 Martie, Duminică

    Timp Temperatura Precipitaţii Vânt Presiune Umiditate
    00:00 +29°C° 0.1 mm 3 m/s 753 mmHg 86%
    01:00 +29°C° 0.1 mm 4 m/s 753 mmHg 87%
    02:00 +29°C° 1.6 mm 4 m/s 752 mmHg 87%
    03:00 +29°C° 1.6 mm 4 m/s 752 mmHg 88%
    04:00 +28°C° 1.6 mm 4 m/s 752 mmHg 88%
    05:00 +28°C° 2.5 mm 3 m/s 752 mmHg 87%
    06:00 +28°C° 2.5 mm 3 m/s 753 mmHg 87%
    07:00 +29°C° 2.5 mm 2 m/s 753 mmHg 86%
    08:00 +30°C° 0 mm 2 m/s 753 mmHg 80%
    09:00 +31°C° 0 mm 3 m/s 754 mmHg 74%
    10:00 +33°C° 0 mm 3 m/s 754 mmHg 68%
    11:00 +33°C° 0 mm 3 m/s 753 mmHg 65%
    12:00 +34°C° 0 mm 3 m/s 752 mmHg 62%
    13:00 +35°C° 0 mm 4 m/s 752 mmHg 58%
    14:00 +35°C° 0 mm 4 m/s 751 mmHg 59%
    15:00 +34°C° 0 mm 4 m/s 751 mmHg 60%
    16:00 +34°C° 0 mm 4 m/s 751 mmHg 61%
    17:00 +33°C° 0 mm 3 m/s 751 mmHg 66%
    18:00 +31°C° 0 mm 3 m/s 751 mmHg 71%
    19:00 +30°C° 0 mm 3 m/s 752 mmHg 76%
    20:00 +30°C° 0 mm 3 m/s 752 mmHg 77%
    21:00 +29°C° 0 mm 2 m/s 753 mmHg 79%
    22:00 +29°C° 0 mm 1 m/s 754 mmHg 80%
    23:00 +29°C° 0 mm 1 m/s 753 mmHg 82%

    25 Martie, Luni

    Timp Temperatura Precipitaţii Vânt Presiune Umiditate
    00:00 +27°C° 0 mm 0 m/s 753 mmHg 83%
    01:00 +27°C° 0 mm 0 m/s 753 mmHg 85%
    02:00 +26°C° 0 mm 0 m/s 752 mmHg 85%
    03:00 +26°C° 0 mm 0 m/s 752 mmHg 86%
    04:00 +28°C° 0 mm 1 m/s 751 mmHg 86%
    05:00 +28°C° 0 mm 1 m/s 752 mmHg 86%
    06:00 +28°C° 0 mm 1 m/s 752 mmHg 87%
    07:00 +28°C° 0 mm 2 m/s 753 mmHg 87%
    08:00 +30°C° 0 mm 1 m/s 753 mmHg 80%
    09:00 +31°C° 0 mm 1 m/s 754 mmHg 74%
    10:00 +32°C° 0 mm 1 m/s 754 mmHg 67%
    11:00 +34°C° 0 mm 2 m/s 753 mmHg 66%
    12:00 +34°C° 0 mm 3 m/s 752 mmHg 64%
    13:00 +35°C° 0 mm 4 m/s 751 mmHg 63%
    14:00 +34°C° 0 mm 4 m/s 751 mmHg 63%
    15:00 +34°C° 0 mm 4 m/s 751 mmHg 64%
    16:00 +34°C° 0 mm 4 m/s 750 mmHg 64%
    17:00 +33°C° 0.8 mm 3 m/s 751 mmHg 70%
    18:00 +31°C° 0.8 mm 3 m/s 752 mmHg 77%
    19:00 +29°C° 0.8 mm 2 m/s 753 mmHg 83%
    20:00 +29°C° 0.9 mm 2 m/s 753 mmHg 85%
    21:00 +29°C° 0.9 mm 2 m/s 753 mmHg 86%
    22:00 +29°C° 0.9 mm 2 m/s 754 mmHg 88%
    23:00 +28°C° 0.1 mm 2 m/s 753 mmHg 88%

    26 Martie, Marţi

    Timp Temperatura Precipitaţii Vânt Presiune Umiditate
    00:00 +28°C° 0.1 mm 2 m/s 753 mmHg 88%
    01:00 +28°C° 0.1 mm 2 m/s 752 mmHg 88%
    02:00 +28°C° 0 mm 2 m/s 752 mmHg 88%
    03:00 +28°C° 0 mm 3 m/s 752 mmHg 89%
    04:00 +27°C° 0 mm 3 m/s 751 mmHg 90%
    05:00 +28°C° 0 mm 3 m/s 752 mmHg 90%
    06:00 +28°C° 0 mm 3 m/s 752 mmHg 90%
    07:00 +28°C° 0 mm 3 m/s 753 mmHg 90%
    08:00 +29°C° 0 mm 2 m/s 753 mmHg 84%
    09:00 +30°C° 0 mm 2 m/s 753 mmHg 78%
    10:00 +31°C° 0 mm 2 m/s 754 mmHg 72%
    11:00 +32°C° 0 mm 2 m/s 753 mmHg 66%
    12:00 +34°C° 0 mm 1 m/s 752 mmHg 59%
    13:00 +35°C° 0 mm 1 m/s 751 mmHg 53%
    14:00 +36°C° 0 mm 2 m/s 751 mmHg 56%
    15:00 +35°C° 0 mm 3 m/s 751 mmHg 58%
    16:00 +35°C° 0 mm 4 m/s 750 mmHg 61%
    17:00 +33°C° 0 mm 4 m/s 751 mmHg 67%
    18:00 +32°C° 0 mm 4 m/s 751 mmHg 73%
    19:00 +30°C° 0 mm 4 m/s 752 mmHg 79%
    20:00 +30°C° 0 mm 4 m/s 752 mmHg 80%
    21:00 +30°C° 0 mm 3 m/s 752 mmHg 81%
    22:00 +30°C° 0 mm 2 m/s 753 mmHg 81%
    23:00 +29°C° 0 mm 2 m/s 753 mmHg 82%

    27 Martie, Miercuri

    Timp Temperatura Precipitaţii Vânt Presiune Umiditate
    00:00 +29°C° 0 mm 2 m/s 752 mmHg 83%
    01:00 +29°C° 0 mm 2 m/s 752 mmHg 84%
    02:00 +29°C° 0 mm 2 m/s 752 mmHg 85%
    03:00 +29°C° 0 mm 2 m/s 752 mmHg 85%
    04:00 +29°C° 0 mm 2 m/s 752 mmHg 86%
    05:00 +29°C° 0.2 mm 2 m/s 752 mmHg 86%
    06:00 +29°C° 0.2 mm 2 m/s 753 mmHg 87%
    07:00 +29°C° 0.2 mm 2 m/s 753 mmHg 87%
    08:00 +30°C° 0.1 mm 2 m/s 754 mmHg 80%
    09:00 +31°C° 0.1 mm 2 m/s 754 mmHg 73%
    10:00 +34°C° 0.1 mm 2 m/s 754 mmHg 66%
    11:00 +35°C° 0 mm 2 m/s 753 mmHg 61%
    12:00 +36°C° 0 mm 3 m/s 752 mmHg 57%
    13:00 +37°C° 0 mm 3 m/s 752 mmHg 53%
    14:00 +37°C° 0 mm 4 m/s 751 mmHg 55%
    15:00 +36°C° 0 mm 4 m/s 751 mmHg 58%
    16:00 +36°C° 0 mm 5 m/s 750 mmHg 60%
    17:00 +34°C° 0 mm 5 m/s 751 mmHg 67%
    18:00 +33°C° 0 mm 5 m/s 751 mmHg 74%
    19:00 +30°C° 0 mm 5 m/s 752 mmHg 81%
    20:00 +30°C° 0 mm 5 m/s 752 mmHg 82%
    21:00 +30°C° 0 mm 4 m/s 753 mmHg 83%
    22:00 +30°C° 0 mm 4 m/s 753 mmHg 84%
    23:00 +29°C° 0 mm 4 m/s 753 mmHg 85%
    Arată mai mult